Location: Vulcan
(50.4000°N, 113.2500°W)
Time: 03:21:29
(UTC-07:00)

Transit 2A Rocket - All Passes

Search period start: 15 November 2019 00:00
Search period end: 25 November 2019 00:00
Orbit: 594 x 909 km, 66.7° (Epoch: 14 November)

Date Brightness Start Highest point End Pass type
(mag) Time Alt. Az. Time Alt. Az. Time Alt. Az.
15 Nov - 00:04:40 10° SW 00:09:18 58° NW 00:13:40 10° NNE night (unlit)
15 Nov - 01:49:56 10° WNW 01:52:44 16° NNW 01:55:28 10° NNE night (unlit)
15 Nov - 05:18:58 10° NNW 05:21:40 16° NNE 05:24:22 10° ENE visible
15 Nov - 07:00:47 10° NNW 07:05:04 60° NE 07:09:29 10° SE visible
15 Nov - 08:44:01 10° WNW 08:47:14 20° WSW 08:50:33 10° SSW daylight
15 Nov - 21:42:30 10° SE 21:44:49 14° ESE 21:47:03 10° ENE night (unlit)
15 Nov - 23:22:00 10° SW 23:26:45 88° ESE 23:31:11 10° NE night (unlit)
16 Nov - 01:06:21 10° W 01:09:50 21° NNW 01:13:12 10° NNE night (unlit)
16 Nov - 04:36:46 10° N 04:38:40 13° NNE 04:40:35 10° NE visible
16 Nov - 06:18:22 10° NNW 06:22:26 38° NE 06:26:35 10° ESE visible
16 Nov - 08:00:59 10° NW 08:04:55 34° WSW 08:09:00 10° S daylight
16 Nov - 22:39:39 10° SSW 22:44:16 53° ESE 22:48:35 10° NE night (unlit)
17 Nov - 00:22:59 10° W 00:27:01 29° NW 00:30:53 10° NNE night (unlit)
17 Nov - 02:09:39 10° NNW 02:10:59 11° NNW 02:12:19 10° N night (unlit)
17 Nov - 03:54:43 10° N 03:55:37 11° NNE 03:56:31 10° NNE visible
17 Nov - 05:36:01 10° NNW 05:39:41 26° NE 05:43:25 10° E visible
17 Nov - 07:18:15 10° NW 07:22:31 59° WSW 07:26:56 10° SSE daylight
17 Nov - 21:57:41 10° S 22:01:52 31° ESE 22:05:49 10° NE night (unlit)
17 Nov - 23:39:52 10° WSW 23:44:18 43° NW 23:48:30 10° NNE night (unlit)
18 Nov - 01:25:41 10° NW 01:27:57 14° NNW 01:30:10 10° N night (unlit)
18 Nov - 04:53:43 10° NNW 04:56:50 19° NNE 05:00:00 10° ENE visible
18 Nov - 06:35:40 10° NW 06:40:02 83° NE 06:44:31 10° SE visible
18 Nov - 08:19:35 10° WNW 08:21:58 14° WSW 08:24:25 10° SW daylight
18 Nov - 21:16:14 10° SSE 21:19:33 19° ESE 21:22:43 10° ENE night (unlit)
18 Nov - 22:57:01 10° SW 23:01:41 68° NW 23:06:04 10° NNE night (unlit)
19 Nov - 00:41:58 10° WNW 00:44:59 17° NNW 00:47:56 10° NNE night (unlit)
19 Nov - 04:11:27 10° N 04:13:54 15° NNE 04:16:21 10° ENE visible
19 Nov - 05:53:12 10° NNW 05:57:26 51° NE 06:01:48 10° SE visible
19 Nov - 07:36:10 10° WNW 07:39:43 25° WSW 07:43:22 10° SSW daylight
19 Nov - 20:36:04 10° ESE 20:37:19 11° ESE 20:38:33 10° E night (unlit)
19 Nov - 22:14:28 10° SSW 22:19:08 74° SE 22:23:33 10° NE night (unlit)
19 Nov - 23:58:28 10° W 00:02:06 23° NW 00:05:38 10° NNE night (unlit)
20 Nov - 01:45:54 10° NNW 01:46:17 10° N 01:46:38 10° N night (unlit)
20 Nov - 03:29:17 10° N 03:30:53 12° NNE 03:32:30 10° NE visible
20 Nov - 05:10:48 10° NNW 05:14:45 33° NE 05:18:48 10° ESE visible
20 Nov - 06:53:16 10° NW 06:57:21 41° WSW 07:01:37 10° S visible
20 Nov - 21:32:14 10° S 21:36:41 44° ESE 21:40:54 10° NE night (unlit)
20 Nov - 23:15:10 10° WSW 23:19:19 33° NW 23:23:18 10° NNE night (unlit)
21 Nov - 01:01:33 10° NW 01:03:12 12° NNW 01:04:49 10° N night (unlit)
21 Nov - 02:47:31 10° N 02:47:49 10° N 02:48:07 10° NNE visible
21 Nov - 04:28:29 10° NNW 04:31:58 23° NE 04:35:32 10° E visible
21 Nov - 06:10:36 10° NW 06:14:55 71° WSW 06:19:26 10° SSE visible
21 Nov - 20:50:25 10° S 20:54:19 26° ESE 20:58:02 10° ENE night (unlit)
21 Nov - 22:32:09 10° WSW 22:36:38 50° NW 22:40:55 10° NNE night (unlit)
22 Nov - 00:17:40 10° WNW 00:20:11 15° NNW 00:22:39 10° N night (unlit)
22 Nov - 03:46:11 10° NNW 03:49:06 17° NNE 03:52:03 10° ENE visible
22 Nov - 05:28:03 10° NW 05:32:23 70° NE 05:36:54 10° SE visible
22 Nov - 07:11:32 10° WNW 07:14:28 18° WSW 07:17:29 10° SSW visible
22 Nov - 20:09:15 10° SSE 20:12:02 16° ESE 20:14:43 10° ENE night (unlit)
22 Nov - 21:49:24 10° SW 21:54:03 80° NW 21:58:27 10° NE night (unlit)
22 Nov - 23:34:01 10° WNW 23:37:14 19° NNW 23:40:23 10° NNE night (unlit)
23 Nov - 03:03:57 10° N 03:06:08 13° NNE 03:08:20 10° NE visible
23 Nov - 04:45:37 10° NNW 04:49:47 44° NE 04:54:04 10° ESE visible
23 Nov - 06:28:22 10° NW 06:32:10 29° WSW 06:36:07 10° S visible
23 Nov - 21:06:56 10° SSW 21:11:33 62° ESE 21:15:54 10° NE night (unlit)
23 Nov - 22:50:35 10° W 22:54:24 26° NW 22:58:05 10° NNE night (unlit)
24 Nov - 00:37:34 10° NNW 00:38:28 11° NNW 00:39:22 10° N night (unlit)
24 Nov - 02:21:50 10° N 02:23:06 11° NNE 02:24:22 10° NNE night (unlit)
24 Nov - 04:03:15 10° NNW 04:07:04 29° NE 04:10:58 10° E visible
24 Nov - 05:45:34 10° NW 05:49:47 50° WSW 05:54:12 10° SSE visible
24 Nov - 20:24:51 10° S 20:29:08 36° ESE 20:33:11 10° NE night (unlit)
24 Nov - 22:07:23 10° WSW 22:11:39 37° NW 22:15:44 10° NNE night (unlit)
24 Nov - 23:53:28 10° NW 23:55:24 13° NNW 23:57:19 10° N night (unlit)
